Погода в Прииртышском

Россия / Тюменская область     58°10′06″N   68°20′57″E
темп.,
°C
ветер,
м/с
пор.,
м/с
влажн.,
%
обл.,
%
осадки,
мм/ч
давл.,
гПа
погр.,
м
17 августа, ср
ср1723:00+10сз497249 0.0 1019168
02:00+7ссз37825 0.0 1019121
05:00+6ссз38885 0.0 1019158
08:00+11ссз576914 0.0 1020533
11:00+14ссз575496 0.3 10191471
14:00+14ссз675797 0.7 10191389
17:00+13ссз676557 1.9 10191156
20:00+9ссз498875 0.8 1020309
18 августа, чт
чт1823:00+6ссз38966 0.8 1021145
02:00+5ссз3795100 0.0 1021126
05:00+6ссз3792100 0.0 1022169
08:00+8ссз3589100 0.1 1022363
11:00+7сз4691100 0.3 1023500
14:00+8сз3491100 0.3 1024449
17:00+9ссз3485100 0.4 1025568
20:00+8ссз2594100 0.0 1025181
19 августа, пт
пт1923:00+8сз2395100 0.0 102670
02:00+8сз369596 0.1 1025176
05:00+8сз3894100 0.1 1026206
08:00+9зсз41091100 0.1 1025317
11:00+14ссз5975100 0.3 1024773
14:00+13с5878100 0.4 1024804
17:00+11ссз4119098 0.7 1025569
20:00+10с36925 0.0 1025226
20 августа, сб
сб2023:00+8ссз229610 0.0 102527
02:00+6сз119786 0.0 102510
05:00+6зюз2295100 0.0 102521
08:00+11юз3482100 0.0 1024217
11:00+17зюз456354 0.0 1023667
14:00+21з555196 0.0 10211243
17:00+16з3676100 0.1 1020347
20:00+15сз2392100 0.1 102069
21 августа, вс
вс2123:00+13ссв71190100 0.1 1021636
02:00+9ссв4109394 0.0 1022288
05:00+7с399287 0.0 1023221
08:00+11с511638 0.0 1023577
11:00+16с793936 0.0 10221290
14:00+18с784154 0.0 10221712
17:00+15с5758100 0.0 10231172
20:00+10ссв5973100 0.0 1025520